{"data":{"norad_id":64173,"epoch":"2026-05-25T02:31:56.945280Z","epoch_age_seconds":62554,"freshness":"FRESH","line1":"1 64173U 25113D   26145.10552020  .00025840  00000+0  84115-3 0  9996","line2":"2 64173  53.1578  95.5584 0000947 109.0653 251.0451 15.31715324 56733","mean_motion":15.31715324,"eccentricity":9.47e-5,"inclination_deg":53.1578,"raan_deg":95.5584,"arg_perigee_deg":109.0653,"mean_anomaly_deg":251.0451,"bstar":0.00084115,"rev_number":5673,"period_min":94.012247408971,"perigee_km":470.0457312343,"apogee_km":471.34289988546,"semimajor_km":6848.8313155599,"source":"CELESTRAK","updated_at":"2026-05-25T13:38:20.309514Z"}}